DAURIA DX 1
1 40071U 14037C 17180.56274254 .00000099 00000-0 20211-4 0 9997
2 40071 098.3396 292.1222 0009098 021.5568 338.6027 14.81020890160802
UKUBE-1
1 40074U 14037F 17180.43367015 .00000258 00000-0 38485-4 0 9993
2 40074 098.3483 295.9001 0005132 026.3494 333.7982 14.83506944160991
HODOYOSHI-1
1 40299U 14070B 17180.55189546 .00000730 00000-0 34659-4 0 9997
2 40299 097.4031 263.1042 0014816 052.7143 054.9186 15.22273552146828
CHUBUSAT-1
1 40300U 14070C 17180.52588145 .00000860 00000-0 41827-4 0 9994
2 40300 097.3954 260.1950 0022219 060.4771 034.9385 15.20876287146661
QSAT-EOS
1 40301U 14070D 17180.55148082 .00001796 00000-0 78009-4 0 9991
2 40301 097.3891 260.3050 0029230 055.5415 052.3577 15.23231811146719
FIREBIRD FU3
1 40377U 15003B 17180.48955539 .00001117 00000-0 51883-4 0 9994
2 40377 099.1229 006.9001 0135484 322.0220 037.1511 15.15395310132868
FIREBIRD FU4
1 40378U 15003C 17180.54763331 .00001153 00000-0 53308-4 0 9993
2 40378 099.1231 007.0080 0135675 321.7334 037.4323 15.15417360132870
GRIFEX
1 40379U 15003D 17180.55222237 .00000831 00000-0 41997-4 0 9993
2 40379 099.1251 004.7410 0141620 329.4481 029.8550 15.12970061132741
NO-84
1 40654U 15025D 17180.30217267 .00004741 00000-0 95747-4 0 00103
2 40654 054.9961 182.4797 0177451 296.6860 061.6084 15.33569377001572
NO-83
1 40655U 15025E 17180.38280874 .00012929 00000-0 19984-3 0 00112
2 40655 054.9796 156.9077 0145736 311.8560 047.0098 15.43292535001566
DEORBITSAIL
1 40719U 15032E 17180.59485728 .00000375 00000-0 61622-4 0 9993
2 40719 097.9792 074.1970 0017969 101.6758 258.6469 14.76067027106157
NUDT-PHONESAT
1 40900U 15049B 17180.55307198 .00001743 00000-0 85305-4 0 9997
2 40900 097.4426 188.2998 0014078 175.2129 184.9243 15.19433528098334
XW-2A
1 40903U 15049E 17180.60700374 .00001582 00000-0 43385-4 0 9992
2 40903 097.4205 206.4635 0013800 215.4086 144.6244 15.38777283099553
XW-2C
1 40906U 15049H 17180.59568345 .00000565 00000-0 34135-4 0 9996
2 40906 097.4544 185.8379 0015606 165.5861 194.5820 15.14546981098117
XW-2D
1 40907U 15049J 17180.57824037 .00000618 00000-0 36904-4 0 9993
2 40907 097.4514 185.5801 0015029 163.5185 196.6539 15.14651459098115
LILACSAT-2
1 40908U 15049K 17180.58771057 .00000286 00000-0 19754-4 0 9993
2 40908 097.4617 185.3541 0016622 162.5646 197.6159 15.13125174098040
XW-2F
1 40910U 15049M 17180.57330573 .00000913 00000-0 51501-4 0 9992
2 40910 097.4534 186.2784 0015928 161.4963 198.6852 15.15536816098152
XW-2B
1 40911U 15049N 17180.58464174 .00000603 00000-0 36122-4 0 9997
2 40911 097.4557 185.9687 0014927 163.8384 196.3327 15.14613366098019
DCBB
1 40912U 15049P 17180.49408902 .00001359 00000-0 70673-4 0 9993
2 40912 097.4498 188.0755 0016127 153.8155 358.1969 15.17639369098152
TW-1C
1 40926U 15051B 17180.59735157 .00006452 00000-0 14867-3 0 9998
2 40926 097.2285 220.0622 0013431 119.8257 031.0843 15.42845016098838
TW-1A
1 40928U 15051D 17180.39388029 .00003126 00000-0 90709-4 0 9995
2 40928 097.2254 215.9904 0013602 147.4948 272.1952 15.36173694098575
IO-86
1 40931U 15052B 17180.47050780 .00000697 00000-0 81366-5 0 9999
2 40931 005.9976 145.1318 0013155 055.6601 304.4763 14.76531989094784
GomX-3
1 40949U 98067HA 16292.18357804 .08527750 12374-4 77882-3 0 9992
2 40949 51.6055 106.7696 0006699 286.1344 73.8944 16.38002265 59645
LQSat
1 40958U 15057A 17180.54355098 .00000033 00000-0 13005-4 0 9999
2 40958 097.9779 255.6470 0019202 029.9796 330.2508 14.72970133092943
AO-85
1 40967U 15058D 17180.30215652 .00000077 00000-0 28415-4 0 00108
2 40967 064.7744 182.1296 0172322 073.4607 288.5348 14.75434096001588
ATHENOXAT-1
1 41168U 15077C 17180.49210372 .00001857 00000-0 67467-4 0 9990
2 41168 014.9860 079.5351 0012318 185.6899 346.5985 15.11605876084902
ChubuSat-2
1 41338U 16012B 17179.93299155 .00000317 00000-0 18123-4 0 9997
2 41338 031.0044 037.6611 0013955 176.6366 183.4365 14.99749099074759
ChubuSat-3
1 41339U 16012C 17180.59160539 .00000332 00000-0 19208-4 0 9997
2 41339 031.0122 032.6031 0013562 189.3060 170.7324 14.99954437074831
Horyu-4
1 41340U 16012D 17180.62638767 .00000450 00000-0 27952-4 0 9992
2 41340 031.0064 029.7897 0014303 198.6341 161.3772 15.00607482074880
OUFTI-1
1 41458U 16025C 17180.62569889 .00000782 00000-0 46676-4 0 9996
2 41458 098.1855 218.9196 0172483 247.7804 110.5044 15.03205668064453
e-st@r-II
1 41459U 16025D 17180.58142910 .00001806 00000-0 10120-3 0 9996
2 41459 098.1837 218.8148 0173704 248.0856 110.1822 15.03048461064432
AAUSAT4
1 41460U 16025E 17180.50500091 .00001783 00000-0 10000-3 0 9999
2 41460 098.1775 218.8467 0166468 246.8649 111.4953 15.03944085064441
MinXSS
1 41474U 98067HU 17125.52237589 .05724416 12300-4 86147-3 0 9995
2 41474 051.6449 208.6967 0008167 329.0747 030.9230 16.33400422055623
CADRE
1 41475U 98067HV 17003.74787607 .12518598 12537-4 55989-3 0 9998
2 41475 51.6110 110.0165 0004040 312.3134 47.7551 16.43344525 36494
NODES 1
1 41477U 98067HX 17180.57338017 .00055767 00000-0 24511-3 0 9990
2 41477 051.6273 298.7442 0001223 294.4895 065.5981 15.84010658064039
NODES 2
1 41478U 98067HY 17180.55673252 .00054331 00000-0 24619-3 0 9997
2 41478 051.6310 299.4174 0001370 300.6559 059.4308 15.83376017064029
LO-87
1 41557U 16033B 17180.20186342 .00001127 00000-0 45194-4 0 9996
2 41557 097.4630 259.7190 0013349 331.2552 028.7950 15.27077229060264
NuSat2
1 41558U 16033C 17180.17033250 .00001148 00000-0 46167-4 0 9996
2 41558 097.4656 259.7429 0012791 330.2827 029.7684 15.26946608060251
Lapan A3
1 41603U 16040E 17180.56033222 .00000365 00000-0 20499-4 0 9997
2 41603 097.4596 242.3960 0014770 036.1350 071.6063 15.19359066056536
Swayam
1 41607U 16040J 17180.17092558 .00001413 00000-0 67062-4 0 9997
2 41607 097.4598 242.3316 0015392 040.4262 319.8114 15.20817507056421
Pratham
1 41783U 16059A 17180.60991228 .00000037 00000-0 16621-4 0 9998
2 41783 098.1661 241.8554 0034878 120.8955 239.5684 14.62841194040411
AlSat 1N
1 41789U 16059G 17180.45149141 .00000100 00000-0 28249-4 0 9996
2 41789 098.1668 242.2231 0029527 115.1202 245.3071 14.64053260040403
ScatSat
1 41790U 16059H 17180.61468021 -.00000016 00000-0 66884-5 0 9992
2 41790 098.0639 230.1378 0012556 107.0192 253.2380 14.50111929040067
TY-1
1 41844U 16066D 17180.58332777 .00000882 00000-0 41502-4 0 9993
2 41844 097.4044 187.5504 0015505 189.1598 319.7485 15.22063716035220
CAS-2T
1 41845U 16066E 17180.50462851 .00000033 00000-0 16108-4 0 9995
2 41845 098.7751 196.4326 0366133 211.5444 146.3332 14.37759374033261
Pegasus-1
1 41846U 16066F 17180.56498078 .00000309 00000-0 58406-4 0 9995
2 41846 098.7804 196.2713 0368621 212.6900 145.0983 14.37025947033251
STARS-C
1 41895U 98067KR 17180.62471934 .00018363 00000-0 21051-3 0 9993
2 41895 051.6390 330.9179 0004260 358.1009 001.9968 15.62144314029930
Tancredo 1
1 41931U 98067KT 17180.59217832 .00037988 00000-0 33115-3 0 9993
2 41931 051.6374 327.6749 0006348 313.1017 046.9448 15.68586442025541
TO-89
1 41932U 98067KU 17180.57631091 .00009344 00000-0 12176-3 0 9998
2 41932 051.6416 332.8635 0005223 316.1289 043.9288 15.59491265025475
AOBA-V3LOX3
1 41935U 98067KX 17180.56414044 .00010603 00000-0 13557-3 0 9991
2 41935 051.6413 332.7786 0004729 319.9480 040.1164 15.59829833025574
OSNSAT
1 41939U 98067KZ 17180.46671256 .00019019 00000-0 20163-3 0 9995
2 41939 051.6388 330.6064 0006296 315.9457 044.1036 15.64119804024854
